Printer-friendly version

IAU Minor Planet Center

Minor Planet Center

MPEC 2006-T67 : 2006 TR7

The following Minor Planet Electronic Circular may be linked-to from your own Web pages, but must not otherwise be redistributed electronically.


Read MPEC 2006-T66 Read MPEC 2006-T68


M.P.E.C. 2006-T67                                Issued 2006 Oct. 13, 14:13 UT

     The Minor Planet Electronic Circulars contain information on unusual
         minor planets and routine data on comets.  They are published
   on behalf of Commission 20 of the International Astronomical Union by the
          Minor Planet Center, Smithsonian Astrophysical Observatory,
                          Cambridge, MA 02138, U.S.A.

             Prepared using the Tamkin Foundation Computer Network

                              MPC@CFA.HARVARD.EDU
          URL http://cfa-www.harvard.edu/iau/mpc.html  ISSN 1523-6714

                                   2006 TR7

Observations:
     K06T07R* C2006 10 10.40344 02 05 27.01 -09 40 47.4          18.6 R ET067644
     K06T07R  C2006 10 10.41544 02 05 22.29 -09 39 31.0          18.7 R ET067644
     K06T07R  C2006 10 10.42864 02 05 17.10 -09 38 07.2          19.0 R ET067644
     K06T07R  C2006 10 12.36221 01 57 47.91 -07 04 51.6          18.8 R ET067644
     K06T07R  C2006 10 12.38277 01 57 42.92 -07 03 37.3          19.6 R ET067644
     K06T07R  C2006 10 12.40333 01 57 37.99 -07 02 22.8          19.3 R ET067644
     K06T07R  C2006 10 13.23354 01 55 31.50 -06 17 37.2          20.0 R ET067734
     K06T07R  C2006 10 13.23689 01 55 31.00 -06 17 30.0          20.1 R ET067734
     K06T07R  C2006 10 13.24024 01 55 30.34 -06 17 19.2          20.0 R ET067734
     K06T07R  C2006 10 13.33938 01 55 12.78 -06 12 15.1          19.5 R ET067854
     K06T07R  C2006 10 13.34226 01 55 12.27 -06 12 07.9          19.6 R ET067854
     K06T07R  C2006 10 13.34513 01 55 11.58 -06 11 58.8          19.6 R ET067854

Observer details:
644 Palomar Mountain/NEAT.  Observers M. Brown, R. Bambery, K. Lawrence,
    M. Hicks, E. Helin, R. Thicksten.  1.2-m Schmidt + CCD.
734 Farpoint Observatory.  Observer G. Hug.  0.7-m reflector + CCD.
854 Sabino Canyon Observatory, Tucson.  Observer J. E. McGaha.  0.36-m f/10.0
    Schmidt-Cassegrain + CCD.

Orbital elements:
2006 TR7                                                 Earth MOID = 0.0074 AU
Epoch 2006 Sept. 22.0 TT = JDT 2454000.5                MPC
M  24.70824              (2000.0)            P               Q
n   0.64945498     Peri.  119.98058     +0.54845830     +0.83617271
a   1.3205961      Node   183.28524     -0.78381974     +0.51288430
e   0.3725035      Incl.    2.95006     -0.29123892     +0.19433191
P   1.52           H   25.6           G   0.15           U   9
Residuals in seconds of arc
061010 644  0.5-  0.1+    061012 644  0.1-  0.1-    061013 734  0.9+  0.6-
061010 644  0.3+  0.0     061012 644  0.1+  0.0     061013 854  0.1-  0.8+
061010 644  0.3+  0.1-    061013 734  1.6-  1.0+    061013 854  0.9+  0.3-
061012 644  0.3-  0.1+    061013 734  0.8+  1.6-    061013 854  0.8-  0.5+

Ephemeris:
2006 TR7                 a,e,i = 1.32, 0.37, 3                   q = 0.8287
Date    TT    R. A. (2000) Decl.     Delta      r     Elong.  Phase     V
2006 10 04.0  10 39.46   -44 25.5    0.00878  0.995    48.0   131.6    21.2
2006 10 04.2  10 03.91   -48 17.8    0.00823  0.996    55.1   124.5    20.4
2006 10 04.4  09 17.80   -51 41.6    0.00782  0.997    63.2   116.4    19.6
2006 10 04.6  08 21.14   -53 54.9    0.00759  0.998    71.9   107.7    19.0
2006 10 04.8  07 18.59   -54 18.8    0.00754  0.999    81.0    98.6    18.5
2006 10 05.0  06 18.60   -52 44.6    0.00769  1.000    90.0    89.6    18.2
2006 10 05.2  05 27.86   -49 41.6    0.00802  1.001    98.4    81.1    18.0
2006 10 05.4  04 48.08   -45 53.6    0.00850  1.002   106.1    73.5    17.8
2006 10 05.6  04 17.76   -41 56.1    0.00913  1.004   112.8    66.7    17.8
2006 10 05.8  03 54.63   -38 09.9    0.00986  1.005   118.6    60.9    17.8
2006 10 06.0  03 36.73   -34 44.4    0.0107   1.006   123.6    55.9    17.8

2006 10 08    02 26.81   -16 33.0    0.0210   1.017   147.9    31.5    18.6
2006 10 10    02 07.78   -10 23.3    0.0326   1.029   156.3    23.0    19.3
2006 10 12    01 58.94   -07 25.6    0.0445   1.040   160.6    18.6    19.9
2006 10 14    01 53.77   -05 41.1    0.0566   1.052   163.3    15.8    20.3
2006 10 16    01 50.33   -04 31.5    0.0688   1.064   165.1    14.0    20.7
2006 10 18    01 47.85   -03 41.1    0.0812   1.076   166.2    12.8    21.1
2006 10 20    01 45.99   -03 02.1    0.0938   1.087   166.6    12.2    21.4
2006 10 22    01 44.54   -02 30.3    0.107    1.099   166.6    12.1    21.7

Kyle E. Smalley              (C) Copyright 2006 MPC           M.P.E.C. 2006-T67

Read MPEC 2006-T66 Read MPEC 2006-T68


Our Web policy. Index to the CBAT/MPC/ICQ pages.


Valid HTML 4.01!